Location: Cuiry
(49.3858°N, 3.7708°E)
Time: 01:21:01
(UTC+00:00)

UNK - Pass Details

Date: 17 April 2026
Orbit: 653 x 673 km, 98.4° (Epoch: 19 May)

Event Time Altitude Azimuth Distance (km) Brightness Sun altitude
Rises 02:34:33 0° 110° (ESE) 3,017 7.4 -19.5°
Reaches altitude 10° 02:37:47 10° 86° (E) 2,105 7.0 -19.2°
Maximum altitude 02:40:06 14° 55° (NE) 1,851 7.1 -18.9°
Drops below altitude 10° 02:42:26 10° 25° (NNE) 2,107 7.3 -18.6°
Sets 02:45:39 0° 0° (N) 3,022 7.7 -18.2°
